Simultaneous Nadir Overpasses (SNOs) Predictions

Prediction of SNOs between AQUA and NOAA-19 Satellite Orbit:

Table of predicted SNOs for the next 14.0 days since TLE Epoch: 9/25/2015
Index Date (AQUA) Time (AQUA) Lat,Lon (AQUA) SZA (AQUA ) Date (NOAA-19) Time (NOAA-19) Lat,Lon (NOAA-19) SZA (NOAA-19 ) Distance(km) Time Diff (sec)
1 09/27/2015 06:17:03 -80.47,-129.03 96.55 09/27/2015 06:15:49 -80.46,-128.88 96.55 2.94 74
2 09/27/2015 07:06:27 80.39, 39.44 83.32 09/27/2015 07:06:49 80.39, 39.56 83.30 2.26 22
3 09/29/2015 11:50:47 80.45, -32.27 84.27 09/29/2015 11:50:09 80.46, -32.43 84.30 2.99 38
4 09/29/2015 12:40:11 -80.37, 136.13 95.86 09/29/2015 12:41:03 -80.37, 136.28 95.89 2.90 52
5 10/01/2015 17:24:30 -80.44, 64.35 94.90 10/01/2015 17:24:21 -80.44, 64.44 94.91 1.86 9
6 10/03/2015 22:08:49 -80.49, -7.20 93.99 10/03/2015 22:07:39 -80.48, -7.12 93.98 1.67 70
7 10/03/2015 22:58:14 80.44, 160.95 85.94 10/03/2015 22:58:42 80.44, 160.78 85.95 3.30 28
8 10/06/2015 03:42:32 80.46, 89.65 86.81 10/06/2015 03:41:59 80.47, 89.64 86.82 0.28 33
9 10/06/2015 04:31:57 -80.42,-102.26 93.26 10/06/2015 04:32:54 -80.42,-102.38 93.27 2.44 57




NCC Satellite Simultaneous Nadir Overpasses (SNOs) Prediction Service
